Flag for Canada Weather past 2 weeks in Rouyn-Noranda, Quebec, Canada

Now
57 °F

Mostly cloudy.


Feels Like: 55 °F
Forecast: N/A
Wind: 9 mph from Northwest

Location: Rouyn Airport

Current Time: Jul 7, 2015 at 4:40:25 PM

Latest Report: Jul 7, 2015 at 4:00 PM


Visibility: 15 mi

Pressure: 29.85 "Hg

Humidity: 82%

Dew point: 52 °F

Location of Rouyn-NorandaLocation

Historic Weather in Rouyn-Noranda — Graph

°F

Rouyn-Noranda temperature yesterday

Maximum temperature yesterday: 79 °F (at 1:00 PM)
Minimum temperature yesterday: 55 °F (at 5:00 AM)
Average temperature yesterday: 69 °F

Past Weeks' High & Low Weather Summary

 TemperatureHumidityPressure
High81 °F (Jun 27, 4:00 PM)100% (Jun 23, 7:00 AM)30.15 "Hg (Jun 23, 7:00 AM)
Low36 °F (Jun 25, 5:00 AM)28% (Jun 26, 6:00 PM)29.40 "Hg (Jun 23, 8:00 AM)
Average61 °F73%29.91 "Hg
* Reported Jun 22 3:00 PM — Jul 7 3:00 PM, Rouyn-Noranda, Weather by CustomWeather, © 2015

Note: Actual official high and low records may vary slightly from our data, if they occured in-between our weather recording intervals... More about our weather records

Advertising

Rouyn-Noranda weather history for previous 24 hours

 ConditionsComfort  
Time TempWeatherWind HumidityBarometerVisibility
3:00 PM
Tue, Jul 7
55 °FMostly cloudy.14 mph94%29.84 "Hg15 mi
2:47 PM55 °FLow clouds.13 mph88%29.84 "Hg15 mi
2:00 PM54 °FDrizzle. Mostly cloudy.13 mph94%29.82 "Hg15 mi
1:45 PM54 °FDrizzle. Mostly cloudy.12 mph94%29.82 "Hg12 mi
1:00 PM54 °FLight rain. Fog.12 mph100%29.82 "Hg5 mi
12:00 PM54 °FLight rain. More clouds than sun.12 mph100%29.80 "Hg8 mi
11:00 AM57 °FFog.12 mph94%29.77 "Hg8 mi
10:00 AM61 °FMostly cloudy.13 mph94%29.73 "Hg15 mi
9:00 AM64 °FLight rain. Fog.9 mph100%29.70 "Hg4 mi
8:00 AM64 °FLight rain. Fog.8 mph100%29.69 "Hg2 mi
7:51 AM64 °FLight rain. Fog.8 mph100%29.69 "Hg2 mi
7:00 AM64 °FLight rain. Fog.10 mph94%29.70 "Hg2 mi
6:00 AM66 °FLight rain. Overcast.13 mph83%29.69 "Hg10 mi
5:51 AM68 °FLight rain. Overcast.12 mph78%29.69 "Hg10 mi
5:00 AM66 °FMostly cloudy.12 mph78%29.70 "Hg10 mi
4:00 AM66 °FPartly cloudy.13 mph78%29.73 "Hg15 mi
3:00 AM66 °FPartly cloudy.14 mph73%29.75 "Hg15 mi
2:00 AM66 °FPartly cloudy.10 mph68%29.77 "Hg15 mi
1:00 AM66 °FPartly cloudy.8 mph64%29.80 "Hg15 mi
12:00 AM66 °FPartly cloudy.6 mph64%29.83 "Hg15 mi
11:00 PM
Mon, Jul 6
68 °FPassing clouds.8 mph60%29.84 "Hg12 mi
10:00 PM72 °FOvercast.12 mph53%29.86 "Hg10 mi
9:00 PM73 °FOvercast.9 mph53%29.85 "Hg10 mi
8:00 PM75 °FOvercast.9 mph54%29.87 "Hg10 mi
7:00 PM77 °FOvercast.14 mph51%29.88 "Hg10 mi
6:00 PM79 °FOvercast.17 mph54%29.88 "Hg8 mi
5:00 PM79 °FOvercast.17 mph58%29.88 "Hg10 mi
4:00 PM79 °FOvercast.18 mph58%29.89 "Hg10 mi
Weather by CustomWeather, © 2015

See weather overviewHow to use our weather pages